Weather History for Fayetteville, AR

Change the Weather History Date:

Friday, November 30, 2012

  Actual Average Record
Temperature  
Mean Temperature 57 °F 42 °F  
Max Temperature 67 °F 52 °F 70 °F (1970)
Min Temperature 46 °F 31 °F 12 °F (1964)
Degree Days  
Heating Degree Days 8 24  
Month to date heating degree days 502 529  
Since 1 July heating degree days 813 829  
Growing Degree Days 7 (Base 50)    
Moisture  
Dew Point 44 °F    
Average Humidity 68    
Maximum Humidity 86    
Minimum Humidity 50    
Precipitation  
Precipitation 0.00 in 0.13 in 2.16 in (2006)
Month to date precipitation 0.97 4.23  
Year to date precipitation 27.91 45.27  
Sea Level Pressure  
Sea Level Pressure 30.10 in    
Wind  
Wind Speed 9 mph (South)    
Max Wind Speed 18 mph    
Max Gust Speed 23 mph    
Visibility 10 miles    
Events      
T = Trace of Precipitation, MM = Missing Value Source: NWS Daily Summary

Daily Weather History Graph

Daily Weather History Graph

Search for Another Location

Airport:

Trip Planner

Search our weather history database for the weather conditions in past years. The results will help you decide how hot, cold, wet, or windy it might be!

Date:

Astronomy

Nov. 30, 2012 Rise Set
Actual Time 7:08 AM CST 5:02 PM CST
Civil Twilight 6:40 AM CST 5:30 PM CST
Nautical Twilight 6:08 AM CST 6:02 PM CST
Astronomical Twilight 5:37 AM CST 6:33 PM CST
Moon 6:57 PM CST (11/30) 8:41 AM CST (11/30)
Length of Visible Light 10h 50m
Length of Day
9h 54m
Waning Gibbous, 96% of the Moon is Illuminated
Nov 30
Waning Gibbous
Dec 6
Last Quarter
Dec 13
New
Dec 19
First Quarter
Dec 28
Full

Hourly Weather History & Observations

Time (CST) Temp. Dew Point Humidity Pressure Visibility Wind Dir Wind Speed Gust Speed Precip Events Conditions
12:53 AM 48.9 °F 30.9 °F 50% 30.14 in 10.0 mi South 5.8 mph - N/A   Clear
1:53 AM 48.0 °F 32.0 °F 54% 30.13 in 10.0 mi SSE 4.6 mph - N/A   Clear
2:53 AM 48.0 °F 32.0 °F 54% 30.14 in 10.0 mi South 4.6 mph - N/A   Clear
3:53 AM 50.0 °F 32.0 °F 50% 30.12 in 10.0 mi SSW 9.2 mph - N/A   Clear
4:53 AM 50.0 °F 33.1 °F 52% 30.12 in 10.0 mi SSW 11.5 mph - N/A   Clear
5:53 AM 50.0 °F 34.0 °F 54% 30.12 in 10.0 mi SSW 11.5 mph - N/A   Clear
6:53 AM 51.1 °F 35.1 °F 54% 30.13 in 10.0 mi SSW 11.5 mph - N/A   Clear
7:53 AM 52.0 °F 37.9 °F 59% 30.14 in 10.0 mi SSW 10.4 mph - N/A   Clear
8:53 AM 55.9 °F 39.9 °F 55% 30.14 in 10.0 mi SSW 10.4 mph - N/A   Clear
9:53 AM 60.1 °F 45.0 °F 57% 30.15 in 10.0 mi South 13.8 mph - N/A   Clear
10:53 AM 62.6 °F 48.2 °F 59% 30.15 in 10.0 mi South 13.8 mph - N/A   Clear
11:53 AM 64.0 °F 48.9 °F 58% 30.11 in 10.0 mi South 15.0 mph 23.0 mph N/A   Clear
12:53 PM 66.0 °F 50.0 °F 56% 30.08 in 10.0 mi SSW 9.2 mph - N/A   Clear
1:53 PM 66.0 °F 48.9 °F 54% 30.07 in 10.0 mi South 9.2 mph - N/A   Clear
2:53 PM 64.9 °F 48.9 °F 56% 30.06 in 10.0 mi South 9.2 mph - N/A   Clear
3:53 PM 64.9 °F 51.1 °F 61% 30.06 in 10.0 mi South 11.5 mph - N/A   Clear
4:53 PM 62.1 °F 50.0 °F 65% 30.06 in 10.0 mi South 5.8 mph - N/A   Clear
5:53 PM 59.0 °F 48.9 °F 69% 30.06 in 10.0 mi Calm Calm - N/A   Clear
6:53 PM 57.0 °F 50.0 °F 77% 30.06 in 10.0 mi South 5.8 mph - N/A   Clear
7:53 PM 57.0 °F 52.0 °F 83% 30.06 in 10.0 mi South 9.2 mph - N/A   Clear
9:33 PM 55.4 °F 51.8 °F 88% 30.08 in 9.0 mi South 4.6 mph - N/A   Scattered Clouds
9:53 PM 55.4 °F 51.8 °F 88% 30.08 in 9.0 mi SSW 4.6 mph - N/A   Partly Cloudy
10:53 PM 57.0 °F 53.1 °F 87% 30.05 in 8.0 mi SSE 4.6 mph - N/A   Clear
11:53 PM 57.9 °F 53.1 °F 84% 30.06 in 10.0 mi South 8.1 mph - N/A   Clear